Location: Zagreb
(45.8000°N, 16.0000°E)
Time: 20:58:32
(UTC+01:00)

CUTE-I - Pass Details

Date: 31 October 2020
Orbit: 811 x 824 km, 98.7° (Epoch: 01 December)

Event Time Altitude Azimuth Distance (km) Brightness Sun altitude
Rises 17:55:34 0° 184° (S) 3,318 ? -13.0°
Reaches altitude 10° 17:58:00 10° 191° (S) 2,391 ? -13.5°
Maximum altitude 18:03:00 42° 262° (W) 1,144 ? -14.3°
Drops below altitude 10° 18:08:03 10° 333° (NNW) 2,411 ? -15.2°
Sets 18:10:32 0° 340° (NNW) 3,349 ? -15.6°
